Powrót do katalogu

COSMOS 2041

AktywnyMilitariaPO
NORAD 20235·PAYLOAD·🇷🇺 Russia

Wystrzelony Sep 14, 1989 z Plesetsk Cosmodrome

Loading…

Następne Przeloty (najbliższe 24 godziny)

TLE

ŚwieżeSource: Space-Track

Epoka: Sep 14, 2026, 10:55 UTC

1 20235U 89074D   26257.45511056  .00000040  00000-0  15970-3 0  9998
2 20235  82.5866 152.4868 0007309 254.3343 280.9868 12.64847766707798

Śledź COSMOS 2041 w czasie rzeczywistym z AllMySat

Download on the App Store